Latest Weather Observations for Carnarvon

IDW60801

Issued at 1:39 am WST Tuesday 21 February 2017 (issued every 30 minutes, with the page automatically refreshed every 10 minutes)

About weather observations | Map of weather stations | Latest weather observations for WA | Other Formats
Station Details ID: 006011 Name: CARNARVON AIRPORT Lat: -24.89 Lon: 113.67 Height: 4.0 m
Data from the previous 72 hours. | See also: Recent months at Carnarvon
Date/Time
WST
Temp
°C
App
Temp
°C
Dew
Point
°C
Rel
Hum
%
Delta-T
°C
Wind Press
QNH
hPa
Press
MSL
hPa
Rain since
9am
mm
Dir  Spd
km/h
Gust
km/h
Spd
kts
Gust
kts
20/05:00pm - - - - - - - - - - - - -
20/04:30pm - - - - - - - - - - - - -
20/04:00pm - - - - - - - - - - - - -
20/03:30pm - - - - - - - - - - - - -
20/03:00pm - - - - - - - - - - - - -
20/02:30pm - - - - - - - - - - - - -
20/02:00pm 29.8 31.9 25.3 77 3.2 SSW 24 30 13 16 1010.0 - 0.0
20/01:30pm 30.1 31.9 25.4 76 3.3 SSW 26 30 14 16 1010.2 - 0.0
20/01:00pm 30.7 32.0 24.6 70 4.3 SSW 26 32 14 17 1010.4 - 0.0
20/12:30pm 30.4 32.0 25.1 73 3.7 SSW 26 32 14 17 1010.7 - 0.0
20/12:00pm 29.9 32.3 25.8 78 2.9 SSW 24 30 13 16 1010.9 1010.9 0.0
20/11:30am 29.8 32.5 25.6 78 3.0 SSW 22 28 12 15 1011.0 - 0.0
20/11:00am 30.0 33.2 24.4 72 3.9 SSW 15 19 8 10 1011.2 - 0.0
20/10:30am 31.7 32.7 19.5 48 8.0 SSE 13 22 7 12 1011.4 - 0.0
20/10:00am 30.8 30.9 19.1 49 7.6 ESE 17 22 9 12 1011.6 - 0.0
20/09:30am 30.5 31.3 20.6 55 6.6 ESE 17 22 9 12 1011.7 - 0.0
20/09:00am 29.9 30.8 21.6 61 5.6 SSE 19 22 10 12 1011.3 1011.3 1.0
20/08:30am 29.1 30.8 22.3 66 4.6 S 17 22 9 12 1011.1 - 1.0
20/08:00am 27.7 29.6 22.1 71 3.8 S 15 19 8 10 1011.0 - 1.0
20/07:30am 27.1 28.9 21.2 70 3.9 SSE 13 17 7 9 1011.0 - 1.0
20/07:00am 26.7 28.2 20.5 69 4.1 SSE 13 17 7 9 1010.8 - 1.0
20/06:30am 26.5 27.6 20.4 69 4.0 SSE 15 19 8 10 1010.6 - 1.0
20/06:00am 26.5 28.0 20.6 70 3.9 SSE 13 15 7 8 1010.5 1010.5 1.0
20/05:30am 26.7 29.2 21.8 74 3.3 SSE 11 17 6 9 1010.5 - 1.0
20/05:00am 27.0 27.4 19.8 64 4.7 S 17 20 9 11 1010.3 - 1.0
20/04:30am 27.3 28.2 20.8 67 4.3 S 17 20 9 11 1010.1 - 1.0
20/04:00am 27.1 27.8 18.8 60 5.3 S 13 17 7 9 1010.3 - 1.0
20/03:30am 26.5 27.7 18.3 60 5.2 SE 9 13 5 7 1010.4 - 1.0
20/03:00am 26.6 28.6 18.8 62 5.0 ESE 6 6 3 3 1010.3 1010.3 1.0
20/02:30am 26.9 28.3 17.9 57 5.7 E 7 9 4 5 1010.7 - 1.0
20/02:00am 27.0 26.8 18.4 59 5.5 ENE 17 22 9 12 1011.2 - 1.0
20/01:30am 26.6 26.9 20.3 68 4.1 E 19 24 10 13 1011.8 - 1.0
20/01:00am 26.3 25.8 20.7 71 3.7 E 24 33 13 18 1012.7 - 1.0
20/12:30am 26.8 26.6 19.7 65 4.6 E 20 39 11 21 1013.0 - 1.0
20/12:00am 27.0 28.6 19.2 62 5.0 NE 9 13 5 7 1012.9 1012.9 1.0
 
Date/Time
WST
Temp
°C
App
Temp
°C
Dew
Point
°C
Rel
Hum
%
Delta-T
°C
Wind Press
QNH
hPa
Press
MSL
hPa
Rain since
9am
mm
Dir  Spd
km/h
Gust
km/h
Spd
kts
Gust
kts
19/11:30pm 26.7 26.8 19.1 63 4.9 ENE 17 22 9 12 1012.6 - 1.0
19/11:00pm 26.6 25.3 19.0 63 4.9 ENE 24 37 13 20 1012.7 - 1.0
19/10:30pm 27.7 25.2 18.1 56 6.1 ENE 28 37 15 20 1012.4 - 1.0
19/10:00pm 27.1 26.0 18.7 60 5.4 ENE 22 33 12 18 1012.6 - 1.0
19/09:30pm 26.9 24.9 19.1 62 5.0 NE 28 41 15 22 1012.9 - 1.0
19/09:00pm 26.2 23.1 19.7 67 4.2 NE 35 48 19 26 1013.3 1013.3 1.0
19/08:30pm 25.7 21.4 21.5 77 2.8 NE 46 67 25 36 1013.5 - 1.0
19/08:04pm 29.7 29.4 22.5 65 4.9 NE 28 54 15 29 1012.8 - 1.0
19/08:00pm 30.2 33.8 24.3 70 4.1 S 13 19 7 10 1011.6 - 1.0
19/07:30pm 29.8 32.7 25.1 76 3.3 S 19 24 10 13 1010.3 - 1.0
19/07:00pm 29.7 32.0 25.0 76 3.3 S 22 30 12 16 1010.0 - 1.0
19/06:30pm 29.6 30.7 24.4 73 3.6 S 26 32 14 17 1009.9 - 1.0
19/06:00pm 30.0 31.5 24.9 74 3.6 SSW 26 33 14 18 1009.6 1009.6 1.0
19/05:30pm 29.6 30.9 24.7 75 3.4 SSW 26 32 14 17 1009.3 - 1.0
19/05:00pm 29.7 30.5 24.4 73 3.7 SSW 28 33 15 18 1009.4 - 1.0
19/04:30pm 29.9 31.6 24.6 73 3.7 SSW 24 30 13 16 1010.1 - 1.0
19/04:00pm 30.3 32.0 24.6 71 4.0 SSW 24 32 13 17 1010.3 - 1.0
19/03:30pm 29.9 31.5 25.2 76 3.3 SSW 26 32 14 17 1010.5 - 1.0
19/03:00pm 30.0 31.7 25.3 76 3.3 SSW 26 32 14 17 1010.5 1010.5 1.0
19/02:30pm 31.0 32.9 25.6 73 3.8 SSW 26 32 14 17 1010.7 - 1.0
19/02:00pm 30.8 33.1 25.7 74 3.6 SW 24 30 13 16 1010.9 - 1.0
19/01:30pm 31.4 34.4 25.6 71 4.1 SSW 20 24 11 13 1011.2 - 1.0
19/01:00pm 31.8 35.4 25.6 69 4.4 SW 17 22 9 12 1011.4 - 1.0
19/12:30pm 32.2 33.9 23.1 58 6.3 SSE 19 26 10 14 1011.5 - 1.0
19/12:00pm 30.9 32.8 23.5 64 5.1 SE 19 22 10 12 1011.7 1011.7 1.0
19/11:30am 29.8 32.2 23.6 69 4.3 SE 17 20 9 11 1012.0 - 1.0
19/11:00am 28.0 31.8 24.7 82 2.3 SE 13 15 7 8 1012.5 - 0.8
19/10:30am 30.0 32.2 21.8 61 5.5 E 13 17 7 9 1013.3 - 0.0
19/10:00am 29.6 31.5 21.4 61 5.5 E 13 17 7 9 1013.6 - 0.0
19/09:30am 29.3 31.2 22.0 64 4.9 NE 15 20 8 11 1014.4 - 0.0
19/09:00am 28.6 31.6 22.6 70 4.1 SE 11 15 6 8 1013.9 1013.9 0.4
19/08:30am 27.4 31.0 23.1 77 2.9 S 9 13 5 7 1013.4 - 0.4
19/08:00am 26.5 30.3 22.8 80 2.5 S 7 9 4 5 1013.2 - 0.4
19/07:30am 26.1 29.4 22.5 80 2.4 SSE 9 15 5 8 1012.9 - 0.4
19/07:00am 25.2 28.1 22.4 84 1.9 SSE 11 17 6 9 1012.6 - 0.4
19/06:30am 24.6 28.4 22.8 90 1.2 SW 7 9 4 5 1012.3 - 0.4
19/06:00am 24.4 28.1 22.6 90 1.2 SSW 7 7 4 4 1012.1 1012.1 0.4
19/05:30am 24.3 28.6 22.7 91 1.1 SSE 4 9 2 5 1011.9 - 0.4
19/05:00am 24.1 28.0 22.5 91 1.1 E 6 9 3 5 1012.1 - 0.4
19/04:30am 24.1 25.3 22.2 89 1.3 E 19 22 10 12 1012.2 - 0.4
19/04:00am 24.3 28.9 22.4 89 1.3 NNE 2 6 1 3 1011.9 - 0.4
19/03:30am 24.3 27.9 22.4 89 1.3 ESE 7 9 4 5 1012.1 - 0.4
19/03:00am 24.4 28.3 22.5 89 1.3 SW 6 13 3 7 1012.5 1012.5 0.4
19/02:30am 24.3 26.5 21.9 86 1.6 N 13 19 7 10 1012.4 - 0.4
19/02:00am 23.9 24.3 21.8 88 1.4 N 22 28 12 15 1012.8 - 0.4
19/01:30am 23.9 23.5 21.6 87 1.5 N 26 33 14 18 1013.6 - 0.0
19/01:26am 24.2 23.2 21.2 83 2.0 N 28 33 15 18 1013.6 - 0.0
19/01:00am 25.6 22.6 20.7 74 3.2 NE 37 63 20 34 1014.4 - 0.0
19/12:49am 25.7 24.1 20.7 74 3.3 NNE 30 48 16 26 1014.7 - 0.0
19/12:30am 25.4 23.6 21.2 77 2.8 NNE 32 41 17 22 1014.6 - 0.0
19/12:06am 25.6 23.0 20.7 74 3.2 NNE 35 54 19 29 1014.6 - 0.0
19/12:00am 25.7 22.5 20.3 72 3.5 NNE 37 52 20 28 1014.7 1014.7 0.0
 
Date/Time
WST
Temp
°C
App
Temp
°C
Dew
Point
°C
Rel
Hum
%
Delta-T
°C
Wind Press
QNH
hPa
Press
MSL
hPa
Rain since
9am
mm
Dir  Spd
km/h
Gust
km/h
Spd
kts
Gust
kts
18/11:30pm 26.4 21.6 21.9 76 3.0 NNE 50 70 27 38 1015.3 - 0.0
18/11:14pm 27.2 24.4 21.7 72 3.7 NE 39 65 21 35 1015.4 - 0.0
18/11:00pm 27.5 23.8 21.8 71 3.8 NNE 44 59 24 32 1014.8 - 0.0
18/10:54pm 28.3 25.2 21.2 65 4.7 NNE 39 59 21 32 1014.5 - 0.0
18/10:52pm 28.6 25.8 21.1 64 5.0 NNE 37 54 20 29 1014.5 - 0.0
18/10:37pm 29.5 28.3 22.3 65 4.9 ENE 32 50 17 27 1014.2 - 0.0
18/10:30pm 29.2 30.6 23.5 71 3.9 S 22 30 12 16 1012.5 - 0.0
18/10:00pm 29.6 30.3 22.9 67 4.6 SSW 24 32 13 17 1011.9 - 0.0
18/09:30pm 29.4 30.2 23.1 69 4.3 SSW 24 32 13 17 1011.5 - 0.0
18/09:00pm 29.2 31.0 23.5 71 3.9 SW 20 24 11 13 1011.6 1011.6 0.0
18/08:30pm 29.1 31.0 23.7 72 3.7 SW 20 26 11 14 1011.3 - 0.0
18/08:00pm 29.1 30.8 23.4 71 3.9 SW 20 26 11 14 1011.5 - 0.0
18/07:30pm 29.1 31.1 23.9 73 3.6 SW 20 30 11 16 1010.9 - 0.0
18/07:00pm 29.9 32.4 23.8 70 4.2 SW 17 22 9 12 1010.9 - 0.0
18/06:30pm 31.4 32.6 22.1 57 6.3 SW 19 24 10 13 1010.5 - 0.0
18/06:00pm 31.8 33.1 22.4 57 6.4 SW 19 26 10 14 1010.4 1010.4 0.0
18/05:30pm 32.5 33.8 22.6 56 6.8 SW 20 26 11 14 1010.2 - 0.0
18/05:00pm 32.0 33.6 23.2 59 6.1 SW 20 26 11 14 1010.2 - 0.0
18/04:30pm 32.1 33.8 23.4 60 6.0 SW 20 24 11 13 1010.2 - 0.0
18/04:00pm 32.8 34.6 23.6 58 6.4 SSW 20 24 11 13 1010.3 - 0.0
18/03:30pm 32.4 34.4 23.0 57 6.5 SW 17 22 9 12 1010.4 - 0.0
18/03:00pm 31.3 33.8 24.8 68 4.6 SW 20 24 11 13 1010.7 1010.7 0.0
18/02:30pm 31.1 34.1 25.3 71 4.1 SSW 19 22 10 12 1010.9 - 0.0
18/02:00pm 31.1 34.1 24.7 68 4.5 SSW 17 22 9 12 1011.0 - 0.0
18/01:30pm 31.8 34.5 23.4 61 5.8 SW 15 19 8 10 1011.1 - 0.0
18/01:00pm 32.7 35.1 23.6 58 6.3 WSW 17 22 9 12 1011.2 - 0.0
18/12:30pm 32.9 35.6 24.7 62 5.8 WSW 19 22 10 12 1011.3 - 0.0
18/12:00pm 36.3 38.9 22.7 45 9.4 NNW 13 24 7 13 1011.5 1011.5 0.0
18/11:30am 36.3 37.5 20.0 38 10.9 N 13 22 7 12 1011.6 - 0.0
18/11:00am 36.0 36.7 19.6 38 10.9 NE 15 20 8 11 1011.7 - 0.0
18/10:30am 34.8 34.5 19.2 39 10.3 ENE 19 28 10 15 1011.5 - 0.0
18/10:00am 35.8 35.5 19.2 37 11.0 ENE 19 26 10 14 1011.5 - 0.0
18/09:30am 31.9 32.3 19.9 49 7.9 E 17 22 9 12 1011.6 - 0.0
18/09:00am 31.3 31.8 20.1 51 7.4 ESE 17 20 9 11 1011.4 1011.4 0.0
18/08:30am 30.5 31.0 20.0 53 6.9 ESE 17 24 9 13 1011.3 - 0.0
18/08:00am 29.9 30.5 20.2 56 6.4 ESE 17 20 9 11 1011.1 - 0.0
18/07:30am 29.0 29.3 20.4 59 5.7 SE 19 24 10 13 1010.9 - 0.0
18/07:00am 28.0 30.1 21.7 68 4.2 SSE 13 17 7 9 1010.9 - 0.0
18/06:30am 27.4 29.7 22.0 72 3.6 SSE 13 15 7 8 1010.7 - 0.0
18/06:00am 27.4 30.8 22.0 72 3.6 ESE 7 9 4 5 1010.4 1010.4 0.0
18/05:30am 27.5 30.6 22.2 73 3.6 E 9 11 5 6 1010.6 - 0.0
18/05:00am 27.8 30.6 22.3 72 3.7 NE 11 17 6 9 1010.5 - 0.0
18/04:30am 28.3 27.9 21.7 67 4.4 NE 26 35 14 19 1010.8 - 0.0
18/04:00am 28.2 30.0 24.2 79 2.8 NE 22 33 12 18 1011.3 - 0.0
18/03:30am 27.8 28.9 23.7 78 2.8 NE 24 35 13 19 1011.6 - 0.0
18/03:00am 28.1 33.7 23.6 76 3.1 CALM 0 0 0 0 1010.3 1010.3 0.0
18/02:30am 28.2 33.0 23.5 75 3.2 NNW 4 7 2 4 1010.1 - 0.0
18/02:00am 28.4 32.7 23.6 75 3.3 NNW 7 9 4 5 1009.8 - 0.0

Other Formats:

Comma delimited format used in spreadsheet applications
http://www.bom.gov.au/fwo/IDW60801/IDW60801.94300.axf

JavaScript Object Notation format (JSON) in row-major order
http://www.bom.gov.au/fwo/IDW60801/IDW60801.94300.json